Location: ??????
(38.0677°N, 22.9870°E)
Time: 15:25:26
(UTC+00:00)

CZ-2C R/B - Pass Details

Date: 06 August 2024
Orbit: 666 x 777 km, 98.4° (Epoch: 09 September)

Event Time Altitude Azimuth Distance (km) Brightness Sun altitude
Rises 02:07:47 0° 12° (NNE) 3,254 6.5 -15.9°
Reaches altitude 10° 02:10:05 10° 12° (NNE) 2,329 5.7 -15.5°
Maximum altitude 02:15:16 85° 283° (WNW) 786 2.5 -14.7°
Enters shadow 02:19:59 12° 196° (SSW) 2,153 4.4 -13.9°
